Emporia, Virginia, United States (23847)
Lat: 36.69N, Lon: 77.54W
Wx Zone: VAZ087
Local Info
Past Weather Observations for Wednesday, November 19, 2014

NOTE: This archive is for the closest National Weather Service station to Emporia. Information may differ from the station used for current weather conditions.

Click here for Long-term Archive

Time Weather Temperature Dewpoint Humidity Pressure Winds Precip Visibility
23:55
Clear
32°F / 0°C 16°F / -9°C 51% 30.21 in
(1023 mb)
SSE 3.5 mph
(SSE 6 kph)
- 10SM
23:35
Clear
32°F / 0°C 16°F / -9°C 51% 30.21 in
(1023 mb)
SE 5.8 mph
(SE 9 kph)
- 10SM
23:15
Clear
32°F / 0°C 16°F / -9°C 51% 30.21 in
(1023 mb)
Calm - 10SM
22:55
Clear
32°F / 0°C 16°F / -9°C 51% 30.24 in
(1024 mb)
SSE 3.5 mph
(SSE 6 kph)
- 10SM
22:35
Clear
32°F / 0°C 14°F / -10°C 47% 30.24 in
(1024 mb)
SE 3.5 mph
(SE 6 kph)
- 10SM
22:15
Clear
32°F / 0°C 14°F / -10°C 47% 30.24 in
(1024 mb)
Calm - 10SM
21:55
Clear
32°F / 0°C 14°F / -10°C 47% 30.24 in
(1024 mb)
SSE 3.5 mph
(SSE 6 kph)
- 10SM
21:35
Clear
32°F / 0°C 14°F / -10°C 47% 30.24 in
(1024 mb)
SSE 3.5 mph
(SSE 6 kph)
- 10SM
21:15
Clear
32°F / 0°C 14°F / -10°C 47% 30.24 in
(1024 mb)
SSE 4.6 mph
(SSE 7 kph)
- 10SM
20:55
Clear
32°F / 0°C 16°F / -9°C 51% 30.24 in
(1024 mb)
SE 3.5 mph
(SE 6 kph)
- 10SM
20:35
Clear
32°F / 0°C 14°F / -10°C 47% 30.24 in
(1024 mb)
SE 3.5 mph
(SE 6 kph)
- 10SM
20:15
Clear
32°F / 0°C 14°F / -10°C 47% 30.24 in
(1024 mb)
SE 4.6 mph
(SE 7 kph)
- 10SM
19:55
Clear
32°F / 0°C 14°F / -10°C 47% 30.24 in
(1024 mb)
SSE 4.6 mph
(SSE 7 kph)
- 10SM
19:35
Clear
32°F / 0°C 14°F / -10°C 47% 30.24 in
(1024 mb)
SE 3.5 mph
(SE 6 kph)
- 10SM
19:15
Clear
32°F / 0°C 14°F / -10°C 47% 30.27 in
(1025 mb)
SE 3.5 mph
(SE 6 kph)
- 10SM
18:55
Clear
32°F / 0°C 12°F / -11°C 44% 30.27 in
(1025 mb)
SE 3.5 mph
(SE 6 kph)
- 10SM
18:35
Clear
32°F / 0°C 14°F / -10°C 47% 30.27 in
(1025 mb)
SE 4.6 mph
(SE 7 kph)
- 10SM
18:15
Clear
32°F / 0°C 12°F / -11°C 44% 30.27 in
(1025 mb)
SE 5.8 mph
(SE 9 kph)
- 10SM
17:55
Clear
34°F / 1°C 12°F / -11°C 41% 30.27 in
(1025 mb)
SE 3.5 mph
(SE 6 kph)
- 10SM
17:35
Clear
34°F / 1°C 12°F / -11°C 41% 30.27 in
(1025 mb)
SE 3.5 mph
(SE 6 kph)
- 10SM
17:15
Clear
36°F / 2°C 10°F / -12°C 35% 30.27 in
(1025 mb)
Calm - 10SM
16:55
Clear
36°F / 2°C 10°F / -12°C 35% 30.27 in
(1025 mb)
S 3.5 mph
(S 6 kph)
- 10SM
16:35
Clear
36°F / 2°C 10°F / -12°C 35% 30.27 in
(1025 mb)
S 3.5 mph
(S 6 kph)
- 10SM
16:15
Clear
37°F / 3°C 10°F / -12°C 33% 30.27 in
(1025 mb)
SSE 5.8 mph
(SSE 9 kph)
- 10SM
15:55
Clear
37°F / 3°C 9°F / -13°C 30% 30.27 in
(1025 mb)
S 6.9 mph
(S 11 kph)
- 10SM
15:35
Clear
37°F / 3°C 9°F / -13°C 30% 30.3 in
(1026 mb)
S 4.6 mph
(S 7 kph)
- 10SM
15:15
Clear
37°F / 3°C 9°F / -13°C 30% 30.3 in
(1026 mb)
SSE 6.9 mph
(SSE 11 kph)
- 10SM
14:55
Clear
39°F / 4°C 10°F / -12°C 30% 30.3 in
(1026 mb)
S 6.9 mph
(S 11 kph)
- 10SM
14:35
Clear
37°F / 3°C 10°F / -12°C 33% 30.3 in
(1026 mb)
S 9.2 mph
(S 15 kph)
- 10SM
14:15
Clear
37°F / 3°C 10°F / -12°C 33% 30.3 in
(1026 mb)
SSE 10.4 mph
(SSE 17 kph)
- 10SM
13:55
Clear
37°F / 3°C 10°F / -12°C 33% 30.33 in
(1027 mb)
S 8.1 mph
(S 13 kph)
- 10SM
13:35
Clear
37°F / 3°C 10°F / -12°C 33% 30.33 in
(1027 mb)
SW 6.9 mph
(SW 11 kph)
- 10SM
13:15
Clear
37°F / 3°C 10°F / -12°C 33% 30.33 in
(1027 mb)
S 9.2 mph
(S 15 kph)
- 10SM
12:55
Clear
37°F / 3°C 9°F / -13°C 30% 30.33 in
(1027 mb)
SW 9.2 mph
(SW 15 kph)
- 10SM
12:35
Clear
36°F / 2°C 10°F / -12°C 35% 30.36 in
(1028 mb)
S 4.6 mph
(S 7 kph)
- 10SM
12:15
Clear
36°F / 2°C 9°F / -13°C 32% 30.36 in
(1028 mb)
S 8.1 mph
(S 13 kph)
- 10SM
11:55
Clear
34°F / 1°C 9°F / -13°C 35% 30.39 in
(1029 mb)
S 3.5 mph
(S 6 kph)
- 10SM
11:35
Clear
34°F / 1°C 9°F / -13°C 35% 30.39 in
(1029 mb)
Calm - 10SM
11:15
Clear
32°F / 0°C 9°F / -13°C 37% 30.42 in
(1030 mb)
SW 5.8 mph
(SW 9 kph)
- 10SM
10:55
Clear
32°F / 0°C 9°F / -13°C 37% 30.42 in
(1030 mb)
SW 4.6 mph
(SW 7 kph)
- 10SM
10:35
Clear
32°F / 0°C 9°F / -13°C 37% 30.42 in
(1030 mb)
SSW 3.5 mph
(SSW 6 kph)
- 10SM
10:15
Clear
32°F / 0°C 10°F / -12°C 40% 30.45 in
(1031 mb)
SSW 4.6 mph
(SSW 7 kph)
- 10SM
09:55
Clear
30°F / -1°C 10°F / -12°C 43% 30.45 in
(1031 mb)
Calm - 10SM
09:35
Clear
30°F / -1°C 10°F / -12°C 43% 30.45 in
(1031 mb)
SSW 4.6 mph
(SSW 7 kph)
- 10SM
09:15
Clear
28°F / -2°C 12°F / -11°C 51% 30.42 in
(1030 mb)
Calm - 10SM
08:55
Clear
28°F / -2°C 14°F / -10°C 55% 30.42 in
(1030 mb)
SSW 3.5 mph
(SSW 6 kph)
- 10SM
08:35
Clear
27°F / -3°C 14°F / -10°C 59% 30.42 in
(1030 mb)
Calm - 10SM
08:15
Clear
23°F / -5°C 12°F / -11°C 63% 30.42 in
(1030 mb)
Calm - 10SM
07:55
Clear
21°F / -6°C 14°F / -10°C 74% 30.42 in
(1030 mb)
Calm - 10SM
07:35
Clear
19°F / -7°C 16°F / -9°C 86% 30.42 in
(1030 mb)
Calm - 10SM
07:15
Clear
18°F / -8°C 14°F / -10°C 86% 30.42 in
(1030 mb)
Calm - 10SM
06:55
Clear
16°F / -9°C 12°F / -11°C 86% 30.39 in
(1029 mb)
Calm - 10SM
06:35
Clear
18°F / -8°C 12°F / -11°C 79% 30.39 in
(1029 mb)
Calm - 10SM
06:15
Clear
18°F / -8°C 12°F / -11°C 79% 30.39 in
(1029 mb)
Calm - 10SM
05:55
Clear
18°F / -8°C 12°F / -11°C 79% 30.39 in
(1029 mb)
Calm - 10SM
05:35
Clear
18°F / -8°C 12°F / -11°C 79% 30.39 in
(1029 mb)
Calm - 10SM
05:15
Clear
19°F / -7°C 12°F / -11°C 73% 30.39 in
(1029 mb)
Calm - 10SM
04:55
Clear
16°F / -9°C 12°F / -11°C 86% 30.39 in
(1029 mb)
Calm - 10SM
04:35
Clear
18°F / -8°C 14°F / -10°C 86% 30.36 in
(1028 mb)
Calm - 10SM
04:15
Clear
18°F / -8°C 14°F / -10°C 86% 30.36 in
(1028 mb)
Calm - 10SM
03:55
Clear
18°F / -8°C 14°F / -10°C 86% 30.36 in
(1028 mb)
Calm - 10SM
03:35
Fair
18°F / -8°C 14°F / -10°C 86% 30.36 in
(1028 mb)
Calm -
03:15
Clear
18°F / -8°C 14°F / -10°C 86% 30.36 in
(1028 mb)
Calm - 10SM
02:55
Clear
16°F / -9°C 12°F / -11°C 86% 30.36 in
(1028 mb)
Calm - 10SM
02:35
Clear
16°F / -9°C 14°F / -10°C 93% 30.36 in
(1028 mb)
Calm - 10SM
02:15
Clear
18°F / -8°C 14°F / -10°C 86% 30.36 in
(1028 mb)
Calm - 10SM
01:55
Clear
18°F / -8°C 14°F / -10°C 86% 30.33 in
(1027 mb)
Calm - 10SM
01:35
Fair
18°F / -8°C 14°F / -10°C 86% 30.36 in
(1028 mb)
Calm -
01:15
Clear
19°F / -7°C 14°F / -10°C 79% 30.36 in
(1028 mb)
Calm - 10SM
00:55
Clear
19°F / -7°C 12°F / -11°C 73% 30.36 in
(1028 mb)
Calm - 10SM
00:35
Clear
19°F / -7°C 14°F / -10°C 79% 30.33 in
(1027 mb)
Calm - 10SM
00:15
Clear
19°F / -7°C 12°F / -11°C 73% 30.33 in
(1027 mb)
Calm - 10SM
Time Weather Temperature Dewpoint Humidity Pressure Winds Precip Visibility


Weather for websites

WeatherForYou.com, LLC is not responsible for any damages or problems caused by this service. Current weather conditions are obtained from the closest station including government and personal stations which may have varying degrees of accuracy. Weather forecasts are derived from the NOAA NDFD. Like all things, this site belongs to Jesus Christ... He just trusts me to maintain it. If you have any questions or comments email webmaster@weatherforyou.com

Copyright © 2014, WeatherForYou.com LLC. All rights reserved.